Wind_Speed
2 1 5 2 1 3 4 5 2 6 4 3 6 7 10 15 6 4 6 4 6 8 6 3 1 1 2 4 4 5 5 7 8 11 11 12 10 14 16 13 11 11 12 13 13 13 15 14 15
3 2 3 1 3 7 5 2 6 6 15 11 10 8 12 7 9 3 2 6 7 7 5 1 2 3 2 0 1 3 5 6 8 8 7 6 7 9 11 10 10 10 11 12 14 14 17 17 15
4 3 1 2 3 7 7 6 13 13 7 3 5 9 5 4 8 4 4 3 3 3 4 2 2 3 2 2 2 2 2 5 6 7 8 7 7 8 9 11 11 11 12 13 14 15 18 20 17
3 2 4 4 9 3 5 10 6 12 8 7 8 10 7 5 4 5 2 4 2 5 7 6 5 6 5 2 2 2 1 3 5 7 9 10 10 10 10 11 12 12 13 14 15 14 17 21 21
3 2 3 5 3 1 3 5 4 5 6 7 4 5 6 8 6 5 6 4 3 7 6 5 5 3 5 5 5 4 1 2 4 5 6 8 9 10 11 12 13 13 14 15 16 16 17 20 23
1 1 4 7 7 5 8 7 11 16 13 8 8 7 6 7 6 8 8 7 7 7 7 5 4 4 5 4 4 2 1 4 6 9 11 11 9 11 12 14 15 17 17 18 18 18 19 22 24
1 2 4 12 12 7 3 4 9 11 8 7 5 5 8 4 6 10 11 9 8 6 4 5 4 6 7 9 8 8 9 9 9 10 13 13 11 15 15 15 16 19 20 21 21 22 22 22 24
4 3 8 6 11 5 4 4 7 8 7 9 4 4 6 4 10 9 8 6 7 8 5 7 10 16 20 17 18 14 13 14 13 11 12 13 14 14 17 18 18 20 22 24 24 26 27 26 25
3 4 7 7 12 7 9 2 4 5 11 6 4 8 16 13 7 8 11 11 12 14 16 20 19 17 18 18 18 18 18 17 17 16 14 15 16 15 15 18 21 23 24 26 26 28 29 28 28
2 2 4 4 8 12 9 7 5 5 12 9 14 16 13 5 9 14 15 17 17 19 21 19 19 18 19 21 22 24 24 23 22 22 18 18 19 20 19 18 18 19 21 25 28 30 30 30 27
3 3 6 9 18 18 14 10 6 9 6 7 13 13 12 14 15 15 18 19 18 18 20 19 18 19 21 23 22 25 26 24 22 22 19 21 22 23 20 18 19 19 18 17 20 25 31 30 32
4 9 5 11 14 13 9 9 10 8 8 15 17 17 17 16 16 15 18 18 20 18 19 17 17 20 22 23 22 23 24 22 22 23 25 27 27 28 26 23 19 18 19 19 17 19 26 35 38
7 7 12 17 22 20 18 14 14 15 11 15 20 18 18 17 17 18 17 16 17 18 16 16 17 17 19 19 19 23 25 25 25 26 27 28 30 31 29 25 24 22 22 19 18 18 18 21 27
10 19 15 13 16 12 18 11 4 8 12 16 19 18 16 17 16 15 13 14 14 11 11 10 11 15 14 15 18 20 21 23 25 27 29 30 31 30 27 26 26 26 25 24 23 21 20 18 20
16 14 12 9 7 8 11 6 7 11 12 14 14 15 13 14 13 12 10 10 9 8 7 8 12 12 15 17 19 23 26 28 30 31 30 28 26 27 27 23 23 25 26 24 24 24 24 23 22
7 7 8 6 6 5 2 5 8 13 14 13 13 14 12 11 9 9 8 7 4 3 5 7 10 11 16 22 25 27 29 31 32 32 31 32 30 27 24 25 24 23 24 24 22 22 25 26 26
1 7 6 9 8 4 3 7 10 14 14 13 13 13 12 9 9 9 7 3 0 2 5 8 10 14 18 22 24 26 28 28 28 28 30 33 31 30 28 23 21 22 20 21 20 18 19 22 26
11 6 8 13 13 6 8 7 14 17 15 14 13 11 11 9 6 9 6 4 3 4 6 9 11 14 18 21 23 25 23 25 27 26 28 29 30 31 27 21 18 17 16 17 17 17 15 17 20
11 9 13 5 4 9 7 11 12 16 15 14 13 11 10 8 7 9 9 7 4 4 7 10 13 17 21 25 26 25 24 22 23 24 27 29 28 24 22 20 17 15 15 17 17 18 19 18 15
8 12 7 8 8 3 10 8 8 14 17 18 15 13 12 11 9 11 8 6 5 5 7 11 16 21 25 25 28 26 21 18 21 23 24 25 23 22 20 19 18 17 13 14 16 16 20 18 13
7 8 15 9 9 6 13 5 7 10 14 16 15 14 12 11 11 11 7 6 4 4 8 14 19 23 24 27 28 24 21 20 22 23 24 24 22 22 22 17 18 16 16 14 14 14 16 19 17
8 7 17 22 11 4 11 3 10 12 14 15 14 16 12 10 11 10 8 5 2 4 10 16 20 22 25 27 24 25 23 22 21 22 24 23 21 21 22 19 16 17 16 16 15 15 17 17 17
5 13 17 14 7 9 9 5 3 10 14 14 11 10 11 10 10 10 8 5 0 6 13 17 19 22 25 23 22 22 20 18 20 23 26 24 25 19 21 19 17 16 18 18 20 20 16 16 14
20 22 12 7 2 4 5 3 5 9 15 14 13 11 12 13 12 11 9 4 3 9 13 17 19 22 21 20 20 19 20 20 23 26 28 26 26 24 23 20 19 18 18 20 20 19 19 16 13
8 7 3 2 4 3 1 5 2 9 5 14 19 16 14 14 13 10 6 2 5 10 13 15 19 19 17 17 17 19 21 21 22 24 26 28 28 29 21 22 20 21 21 21 21 20 21 21 17
14 2 4 6 5 2 2 6 3 1 2 11 19 18 17 15 12 9 5 1 6 10 11 15 17 14 14 15 17 18 19 19 21 22 24 24 27 30 23 21 20 20 20 20 21 21 20 20 20
7 6 5 7 2 3 3 2 5 7 7 16 20 21 19 16 12 9 4 2 6 7 11 14 12 11 13 16 17 17 17 17 18 22 21 21 22 24 26 21 20 19 19 19 18 19 20 18 19
4 11 4 3 6 5 4 6 9 11 12 13 18 21 19 17 13 9 3 2 4 7 11 11 10 11 14 15 16 16 18 19 17 19 20 19 19 20 18 18 19 19 19 21 17 18 18 19 17
6 4 5 4 1 3 3 4 2 14 17 18 21 21 21 18 13 9 5 1 3 7 9 7 8 10 11 15 18 17 17 18 16 18 19 20 20 20 19 20 20 18 21 23 22 17 17 17 18
3 4 5 4 5 0 2 1 4 7 18 21 22 21 19 16 14 10 6 2 2 5 7 5 7 9 10 14 16 17 16 15 16 19 23 22 21 23 20 19 19 19 21 20 22 22 20 17 16
Wind_Direction
173 17 350 10 180 91 75 73 306 113 80 72 74 54 65 42 16 47 354 43 45 66 70 72 352 24 58 53 72 107 131 146 166 187 181 186 175 186 188 192 201 209 208 210 215 214 208 199 193
158 52 359 321 100 112 95 28 95 115 121 109 70 45 57 70 47 31 86 52 31 45 59 89 114 102 113 87 64 97 123 138 152 166 180 194 205 197 199 212 223 232 233 231 229 228 216 205 200
142 68 335 45 84 116 124 134 123 103 79 85 102 60 51 43 37 43 13 64 58 47 56 75 77 72 119 172 175 202 175 142 146 153 170 186 204 208 221 229 232 239 239 238 240 239 227 216 211
131 94 56 83 96 88 120 160 151 119 70 54 93 73 75 56 68 30 38 94 53 57 46 40 57 55 53 51 115 138 185 181 180 169 174 178 193 209 222 233 239 239 239 244 246 244 237 226 222
145 107 97 97 100 97 59 19 214 105 103 62 76 93 78 100 46 55 91 94 92 67 58 50 46 61 66 65 58 52 71 192 202 229 221 218 208 213 223 234 243 249 249 246 248 244 237 229 228
144 118 123 130 130 93 70 85 93 81 83 81 81 98 83 114 53 78 86 91 75 71 64 57 57 54 56 67 69 85 239 252 250 241 244 242 239 253 244 240 242 245 250 253 249 247 242 235 231
170 107 103 121 129 127 131 69 66 96 88 55 85 86 124 72 52 87 93 86 71 68 71 29 54 62 44 39 33 23 14 355 338 315 297 313 258 255 258 251 255 252 248 250 252 251 246 240 238
129 91 135 137 162 125 124 102 114 96 84 112 65 110 134 108 92 96 92 66 41 49 74 76 73 58 49 45 41 33 21 14 6 352 332 322 311 292 280 281 267 260 258 255 250 255 251 245 242
128 154 142 141 149 135 136 89 52 99 121 74 86 121 129 114 86 95 87 82 71 85 75 66 67 63 62 57 48 38 25 14 6 359 349 341 342 334 317 296 285 274 265 257 252 251 253 250 248
37 139 90 77 123 133 121 110 74 89 107 91 98 121 137 90 113 104 96 91 86 87 77 72 65 56 47 40 31 31 26 20 13 7 3 359 356 342 329 315 308 298 285 276 267 259 252 248 246
58 57 125 69 113 124 123 92 84 102 73 139 134 129 125 123 114 105 104 96 94 90 80 65 55 46 34 24 24 20 17 15 10 9 1 354 349 347 332 318 311 307 303 297 283 275 259 250 251
112 56 99 121 116 113 95 106 75 72 103 119 118 121 121 118 112 111 102 102 99 92 72 60 50 33 21 16 14 9 1 358 354 350 345 342 340 337 334 320 310 304 305 303 297 289 268 250 240
98 98 79 103 96 97 100 86 94 90 113 121 121 121 121 118 115 117 115 112 96 75 64 55 36 14 7 5 0 356 351 344 340 335 333 331 330 328 325 316 307 302 293 290 286 286 286 277 252
116 106 104 94 91 113 107 97 75 114 136 131 127 127 124 122 129 123 113 100 79 66 61 49 19 9 1 354 351 344 341 338 335 332 332 330 330 329 325 319 312 306 296 283 276 271 269 266 270
119 103 96 75 103 115 102 65 104 139 150 149 144 136 134 137 134 125 114 97 80 62 39 11 355 347 347 348 347 343 342 341 339 339 338 339 337 332 332 328 319 313 306 299 285 274 266 263 259
108 116 142 175 132 134 8 128 135 153 157 157 156 151 151 150 146 134 129 102 80 40 0 353 341 343 354 351 343 339 337 337 339 343 344 345 344 341 334 327 327 319 314 310 300 286 273 262 259
114 162 164 179 202 139 208 141 171 173 171 171 176 167 151 166 159 149 142 134 293 346 335 336 339 350 344 333 330 328 328 333 339 339 339 340 343 345 342 335 325 321 320 316 315 306 294 277 264
178 164 181 187 200 206 185 170 171 183 183 189 189 176 167 170 163 173 192 237 270 304 317 327 336 334 331 327 328 333 342 343 342 346 347 345 342 342 346 346 338 329 323 325 328 323 319 305 286
158 150 165 161 176 187 202 158 172 184 194 200 202 191 191 175 173 195 218 236 261 298 317 332 334 338 334 335 343 346 347 346 348 350 348 346 346 348 351 351 351 349 342 335 329 325 328 327 321
157 146 129 99 144 151 156 147 172 190 205 214 212 205 204 180 174 199 211 221 246 297 335 340 343 342 343 349 349 352 356 358 358 355 359 360 359 359 0 359 360 354 350 341 333 335 338 329 326
204 193 167 140 130 122 146 151 195 199 219 222 228 227 220 196 181 189 206 224 253 312 344 346 346 346 348 350 352 356 359 2 2 7 4 3 2 3 5 8 5 353 352 347 349 343 348 343 330
216 169 151 141 154 164 212 191 214 203 209 217 227 231 210 187 187 194 204 205 228 347 350 348 349 350 350 353 357 360 6 10 9 4 1 2 360 358 1 7 10 2 358 355 354 353 350 343 344
66 141 137 144 108 135 192 253 131 198 212 210 210 179 160 164 161 162 162 172 156 0 352 352 352 352 353 356 360 4 12 11 6 8 9 7 6 5 1 10 12 4 3 5 4 3 353 344 349
124 114 104 100 135 238 155 246 192 195 220 204 188 165 154 151 153 163 167 159 16 356 351 351 356 353 353 2 5 11 18 15 14 13 13 14 11 11 10 23 16 9 7 6 5 2 7 355 355
162 148 105 157 204 258 63 212 322 189 199 205 179 160 154 154 157 154 146 102 2 351 351 357 354 354 5 10 17 22 23 20 15 15 16 18 16 14 21 17 16 17 14 13 8 8 8 8 3
172 159 174 198 205 199 127 237 144 60 282 182 165 155 154 156 158 149 152 53 353 352 359 358 353 7 14 18 21 25 21 17 14 16 12 19 21 21 22 21 16 13 11 8 6 7 9 7 11
181 214 98 108 59 202 204 256 183 140 121 148 152 156 158 158 157 156 160 358 0 1 358 352 5 18 21 26 29 26 19 12 16 14 10 13 19 17 34 32 28 22 17 14 11 6 10 8 8
173 132 154 133 160 226 224 268 237 191 170 163 163 163 160 159 158 164 161 6 8 358 354 356 21 26 32 32 21 13 11 10 18 17 9 17 17 13 13 14 15 18 19 9 4 7 5 11 12
146 160 67 100 307 229 209 229 337 200 181 174 171 170 166 164 164 163 164 84 355 354 356 18 26 29 25 17 16 16 19 32 33 17 16 20 16 12 9 15 16 17 14 13 16 8 6 5 10
78 142 159 228 183 151 290 203 347 242 180 171 169 170 169 165 164 165 159 154 339 360 2 29 31 24 18 14 11 15 27 33 24 26 28 27 19 21 18 16 15 20 12 17 22 20 15 13 13
Height
1520 1519 1518 1517 1521 1516 1528 1528 1526 1526 1528 1535 1534 1534 1537 1543 1543 1550 1549 1547 1547 1547 1548 1548 1547 1547 1546 1547 1549 1549 1549 1549 1550 1549 1550 1550 1551 1552 1554 1555 1557 1557 1558 1558 1559 1560 1562 1564 1565
1519 1520 1518 1516 1518 1525 1532 1527 1526 1526 1531 1533 1534 1537 1540 1547 1548 1549 1548 1547 1548 1548 1548 1549 1549 1548 1548 1548 1548 1550 1550 1549 1551 1552 1551 1553 1553 1555 1556 1556 1556 1557 1557 1560 1561 1560 1561 1562 1564
1519 1519 1519 1518 1525 1529 1531 1529 1527 1532 1534 1533 1536 1540 1544 1552 1551 1551 1550 1549 1549 1549 1550 1550 1550 1549 1549 1548 1548 1549 1549 1550 1551 1551 1553 1554 1556 1556 1558 1557 1555 1556 1557 1557 1558 1558 1560 1561 1563
1520 1521 1522 1521 1528 1529 1526 1527 1532 1535 1536 1535 1538 1544 1551 1554 1554 1552 1550 1550 1551 1551 1552 1552 1550 1550 1550 1549 1549 1548 1550 1549 1550 1550 1551 1550 1551 1553 1554 1555 1555 1555 1555 1555 1556 1556 1557 1558 1561
1519 1519 1521 1530 1532 1529 1531 1535 1534 1534 1537 1540 1540 1549 1554 1555 1554 1553 1553 1552 1552 1552 1552 1552 1551 1550 1550 1549 1550 1550 1549 1549 1549 1549 1549 1548 1549 1550 1552 1553 1554 1553 1553 1552 1554 1553 1554 1556 1558
1519 1519 1522 1529 1533 1533 1535 1536 1535 1535 1538 1541 1544 1548 1556 1557 1556 1555 1555 1554 1554 1554 1553 1552 1551 1550 1550 1550 1549 1549 1549 1550 1549 1548 1547 1545 1545 1548 1549 1549 1550 1550 1551 1550 1550 1550 1551 1552 1553
1518 1517 1528 1529 1533 1533 1534 1536 1538 1540 1540 1544 1546 1549 1557 1559 1558 1557 1556 1556 1555 1555 1554 1553 1552 1551 1552 1552 1552 1552 1553 1553 1551 1550 1547 1547 1548 1548 1546 1545 1546 1546 1545 1546 1546 1547 1547 1548 1549
1517 1519 1529 1528 1530 1536 1537 1538 1540 1540 1544 1546 1548 1551 1557 1559 1559 1558 1557 1557 1556 1556 1555 1553 1554 1556 1556 1555 1554 1553 1553 1552 1551 1549 1549 1548 1548 1547 1546 1544 1543 1541 1540 1541 1540 1543 1544 1542 1544
1517 1518 1525 1529 1529 1534 1539 1540 1542 1543 1543 1547 1550 1553 1556 1558 1559 1558 1560 1559 1559 1558 1559 1559 1559 1558 1557 1556 1555 1555 1553 1551 1550 1549 1547 1546 1544 1543 1541 1540 1539 1538 1536 1534 1535 1536 1538 1538 1539
1517 1516 1523 1527 1529 1533 1540 1542 1544 1547 1547 1551 1552 1555 1556 1559 1560 1561 1562 1562 1562 1563 1562 1562 1561 1560 1559 1558 1556 1554 1553 1551 1550 1549 1547 1545 1542 1540 1537 1535 1534 1532 1530 1530 1529 1529 1530 1532 1532
1521 1522 1526 1532 1533 1536 1540 1544 1547 1550 1550 1551 1554 1556 1559 1560 1562 1564 1564 1564 1566 1566 1565 1564 1563 1562 1560 1558 1556 1554 1552 1550 1549 1547 1545 1542 1540 1538 1536 1533 1530 1527 1525 1524 1523 1522 1522 1523 1524
1522 1528 1528 1534 1537 1538 1542 1547 1550 1552 1558 1555 1556 1559 1561 1563 1564 1567 1566 1567 1568 1569 1567 1566 1564 1562 1560 1558 1556 1554 1552 1550 1548 1544 1541 1538 1536 1534 1531 1529 1527 1524 1522 1519 1518 1515 1514 1516 1514
1524 1529 1533 1537 1537 1541 1546 1550 1553 1559 1563 1562 1559 1561 1563 1565 1566 1569 1569 1568 1569 1569 1568 1566 1564 1563 1561 1559 1556 1554 1551 1548 1545 1542 1538 1536 1533 1530 1527 1525 1522 1520 1518 1516 1514 1511 1510 1509 1504
1528 1531 1536 1540 1541 1546 1549 1556 1555 1564 1566 1565 1564 1565 1566 1566 1569 1570 1571 1570 1570 1570 1568 1567 1566 1565 1563 1560 1557 1554 1551 1548 1544 1540 1536 1533 1529 1526 1523 1520 1517 1514 1512 1509 1508 1507 1506 1503 1504
1532 1533 1538 1543 1544 1549 1550 1558 1562 1565 1568 1568 1567 1567 1569 1569 1570 1571 1571 1572 1571 1570 1569 1568 1567 1565 1563 1560 1557 1553 1549 1543 1539 1534 1531 1528 1525 1521 1518 1516 1513 1509 1506 1503 1501 1500 1499 1499 1500
1532 1534 1540 1547 1547 1551 1551 1564 1565 1566 1568 1568 1567 1566 1568 1570 1571 1572 1572 1572 1572 1571 1570 1568 1567 1565 1562 1559 1555 1551 1547 1542 1537 1531 1526 1521 1519 1517 1516 1512 1508 1505 1501 1497 1495 1493 1493 1493 1492
1535 1538 1546 1549 1548 1550 1553 1562 1563 1566 1568 1568 1568 1568 1569 1571 1572 1573 1573 1571 1572 1571 1570 1568 1566 1564 1563 1560 1557 1552 1546 1541 1536 1531 1526 1521 1516 1512 1510 1508 1505 1501 1497 1493 1490 1488 1486 1484 1484
1532 1537 1541 1542 1543 1549 1553 1557 1561 1564 1566 1566 1567 1569 1568 1570 1573 1573 1573 1572 1572 1571 1570 1568 1566 1564 1562 1559 1555 1550 1543 1537 1532 1527 1523 1520 1516 1511 1506 1503 1500 1497 1494 1490 1487 1484 1482 1480 1477
1516 1522 1531 1544 1545 1550 1552 1558 1560 1563 1565 1565 1565 1567 1568 1570 1571 1572 1572 1572 1572 1571 1570 1568 1566 1562 1559 1555 1551 1546 1542 1536 1532 1527 1523 1518 1513 1509 1506 1502 1498 1495 1491 1488 1484 1481 1478 1476 1475
1517 1523 1539 1547 1548 1549 1554 1559 1560 1561 1561 1561 1563 1565 1567 1569 1571 1571 1572 1571 1571 1570 1569 1567 1564 1559 1556 1552 1547 1543 1539 1536 1531 1526 1521 1517 1512 1508 1504 1502 1498 1494 1491 1488 1484 1480 1476 1474 1473
1511 1514 1532 1535 1549 1551 1555 1562 1561 1561 1561 1560 1562 1564 1566 1568 1570 1569 1570 1570 1570 1569 1568 1565 1561 1558 1554 1551 1546 1542 1538 1535 1531 1527 1523 1517 1513 1508 1505 1501 1498 1494 1491 1487 1484 1480 1476 1472 1470
1508 1509 1519 1533 1536 1547 1548 1546 1557 1555 1556 1558 1559 1561 1564 1564 1567 1569 1569 1569 1569 1569 1567 1564 1561 1557 1553 1549 1545 1540 1537 1535 1532 1529 1524 1518 1513 1509 1505 1501 1498 1494 1490 1487 1484 1480 1476 1472 1468
1513 1509 1520 1528 1532 1536 1549 1545 1547 1552 1553 1552 1556 1560 1562 1563 1567 1568 1568 1569 1569 1569 1567 1563 1561 1557 1553 1549 1545 1542 1540 1538 1535 1530 1524 1519 1514 1508 1504 1500 1497 1494 1490 1487 1483 1479 1476 1472 1468
1512 1516 1523 1526 1529 1536 1539 1542 1539 1548 1544 1547 1553 1558 1560 1563 1566 1567 1569 1569 1569 1568 1566 1563 1560 1557 1554 1550 1547 1544 1542 1539 1536 1530 1526 1521 1516 1510 1505 1501 1497 1494 1490 1487 1483 1479 1475 1471 1468
1507 1508 1532 1539 1538 1535 1541 1541 1530 1536 1539 1542 1549 1556 1560 1563 1566 1568 1569 1569 1569 1568 1566 1564 1561 1558 1555 1552 1549 1546 1543 1540 1537 1533 1529 1523 1518 1512 1507 1503 1499 1495 1492 1488 1484 1479 1475 1471 1467
1504 1502 1515 1540 1541 1531 1539 1534 1527 1539 1541 1541 1548 1553 1559 1563 1566 1568 1568 1569 1568 1567 1566 1564 1562 1559 1557 1554 1550 1547 1544 1541 1538 1534 1530 1526 1521 1515 1510 1506 1502 1498 1494 1489 1485 1481 1477 1472 1468
1504 1508 1510 1529 1541 1535 1532 1532 1536 1541 1543 1544 1547 1551 1556 1561 1564 1566 1567 1568 1568 1567 1566 1564 1561 1559 1557 1554 1551 1548 1544 1541 1538 1535 1531 1527 1523 1518 1514 1509 1504 1500 1496 1491 1486 1482 1478 1474 1470
1490 1501 1515 1514 1542 1543 1536 1535 1518 1536 1539 1544 1547 1551 1556 1560 1563 1565 1567 1568 1567 1566 1565 1563 1561 1559 1556 1553 1550 1547 1544 1541 1538 1535 1531 1528 1524 1520 1515 1511 1507 1503 1498 1494 1488 1483 1479 1475 1472
1497 1499 1511 1512 1520 1521 1530 1520 1522 1521 1529 1537 1545 1551 1555 1558 1562 1564 1566 1567 1566 1566 1565 1562 1561 1559 1557 1554 1550 1547 1544 1542 1539 1536 1532 1529 1525 1521 1516 1512 1508 1504 1500 1495 1489 1485 1480 1476 1473
1488 1494 1496 1501 1525 1526 1521 1515 1527 1526 1531 1539 1545 1551 1555 1558 1561 1564 1565 1565 1566 1565 1564 1562 1560 1559 1557 1554 1552 1549 1546 1543 1541 1538 1535 1531 1527 1522 1518 1514 1510 1505 1501 1497 1492 1487 1483 1479 1475